N664NG KHTS-KGPM

Flight info

Callsign N664NG
Flight time N/A
Altitude 20000
Route DEWAK Q80 FAREV LIT PONYY TRUUK3
Aircraft PC12/L-VGD/A

Departure

Time 2026-05-06 17:22
Airport Tri-State Airport / Milton J. Ferguson Field (KHTS)

Arrival

Time N/A
Airport Grand Prairie Municipal Airport (KGPM)
Time Latitude Longitude Altitude Speed Heading
2026-05-06 17:08 38.36923 -82.55702 786 ft 0 kts 292°
2026-05-06 17:18 38.36924 -82.55707 786 ft 3 kts 283°
2026-05-06 17:18 38.36906 -82.55733 787 ft 4 kts 207°
2026-05-06 17:18 38.36868 -82.55747 789 ft 7 kts 163°
2026-05-06 17:19 38.36840 -82.55698 791 ft 7 kts 112°
2026-05-06 17:19 38.36814 -82.55616 792 ft 12 kts 112°
2026-05-06 17:19 38.36788 -82.55535 793 ft 8 kts 112°
2026-05-06 17:19 38.36763 -82.55458 793 ft 10 kts 113°
2026-05-06 17:20 38.36739 -82.55365 792 ft 6 kts 103°
2026-05-06 17:20 38.36737 -82.55350 792 ft 0 kts 102°
2026-05-06 17:20 38.36714 -82.55295 791 ft 13 kts 127°
2026-05-06 17:20 38.36662 -82.55151 786 ft 19 kts 114°
2026-05-06 17:21 38.36611 -82.54997 771 ft 17 kts 114°
2026-05-06 17:21 38.36562 -82.54889 761 ft 11 kts 161°
2026-05-06 17:21 38.36507 -82.54917 763 ft 11 kts 236°
2026-05-06 17:21 38.36514 -82.54987 770 ft 9 kts 292°
2026-05-06 17:22 38.36601 -82.55256 791 ft 66 kts 292°
2026-05-06 17:22 38.36828 -82.55940 973 ft 92 kts 296°
2026-05-06 17:22 38.37104 -82.56683 1319 ft 94 kts 296°
2026-05-06 17:22 38.37400 -82.57477 1674 ft 107 kts 295°
2026-05-06 17:23 38.37481 -82.58445 2032 ft 122 kts 252°
2026-05-06 17:23 38.37036 -82.59381 2498 ft 129 kts 234°
2026-05-06 17:23 38.36403 -82.60214 2969 ft 132 kts 226°
2026-05-06 17:23 38.35723 -82.60971 3466 ft 131 kts 225°
2026-05-06 17:24 38.35042 -82.61700 3989 ft 126 kts 225°
2026-05-06 17:24 38.34388 -82.62402 4519 ft 124 kts 225°
2026-05-06 17:24 38.33756 -82.63089 5162 ft 119 kts 226°
2026-05-06 17:24 38.33150 -82.63757 5760 ft 117 kts 227°
2026-05-06 17:25 38.32561 -82.64411 6378 ft 111 kts 227°
2026-05-06 17:25 38.31992 -82.65045 6876 ft 113 kts 227°
2026-05-06 17:25 38.31411 -82.65694 7427 ft 112 kts 227°
2026-05-06 17:25 38.30829 -82.66346 7919 ft 114 kts 228°
2026-05-06 17:26 38.30241 -82.67003 8418 ft 114 kts 228°
2026-05-06 17:26 38.29645 -82.67667 8903 ft 114 kts 228°
2026-05-06 17:26 38.29047 -82.68332 9357 ft 116 kts 228°
2026-05-06 17:26 38.28452 -82.68995 9828 ft 115 kts 229°
2026-05-06 17:27 38.27854 -82.69662 10228 ft 119 kts 230°
2026-05-06 17:27 38.27197 -82.70406 10520 ft 133 kts 230°
2026-05-06 17:27 38.26476 -82.71220 10807 ft 145 kts 230°
2026-05-06 17:27 38.25700 -82.72088 11092 ft 154 kts 230°
2026-05-06 17:28 38.24873 -82.73007 11373 ft 160 kts 229°
2026-05-06 17:28 38.24021 -82.73949 11672 ft 163 kts 229°
2026-05-06 17:28 38.23173 -82.74880 12018 ft 162 kts 230°
2026-05-06 17:28 38.22326 -82.75816 12322 ft 163 kts 231°
2026-05-06 17:29 38.21535 -82.76688 12655 ft 161 kts 231°
2026-05-06 17:29 38.20693 -82.77623 12920 ft 163 kts 231°
2026-05-06 17:29 38.19847 -82.78560 13236 ft 161 kts 231°
2026-05-06 17:29 38.19013 -82.79485 13538 ft 160 kts 232°
2026-05-06 17:30 38.18211 -82.80374 13787 ft 161 kts 233°
2026-05-06 17:30 38.17364 -82.81318 14035 ft 161 kts 233°
2026-05-06 17:30 38.16518 -82.82255 14254 ft 161 kts 233°
2026-05-06 17:30 38.15666 -82.83199 14467 ft 162 kts 233°
2026-05-06 17:31 38.14827 -82.84128 14650 ft 162 kts 233°
2026-05-06 17:31 38.13973 -82.85075 14786 ft 163 kts 233°
2026-05-06 17:31 38.13146 -82.85990 14942 ft 162 kts 232°
2026-05-06 17:31 38.12299 -82.86928 15034 ft 163 kts 233°
2026-05-06 17:32 38.11433 -82.87884 15134 ft 163 kts 233°
2026-05-06 17:32 38.10585 -82.88824 15193 ft 164 kts 232°
2026-05-06 17:32 38.09718 -82.89781 15244 ft 164 kts 233°
2026-05-06 17:32 38.08862 -82.90726 15341 ft 160 kts 232°
2026-05-06 17:33 38.08112 -82.91547 15474 ft 156 kts 233°
2026-05-06 17:33 38.07294 -82.92445 15624 ft 151 kts 233°
2026-05-06 17:33 38.06522 -82.93292 15768 ft 145 kts 233°
2026-05-06 17:33 38.05772 -82.94115 15905 ft 138 kts 234°
2026-05-06 17:34 38.05071 -82.94885 16037 ft 130 kts 235°
2026-05-06 17:34 38.04390 -82.95641 16198 ft 130 kts 235°
2026-05-06 17:34 38.03695 -82.96427 16347 ft 136 kts 236°
2026-05-06 17:34 38.02977 -82.97233 16494 ft 140 kts 235°
2026-05-06 17:35 38.02237 -82.98055 16635 ft 142 kts 234°
2026-05-06 17:35 38.01490 -82.98876 16776 ft 143 kts 235°
2026-05-06 17:35 38.00735 -82.99706 16929 ft 143 kts 235°
2026-05-06 17:36 37.99237 -83.01345 17210 ft 142 kts 235°
2026-05-06 17:36 37.98491 -83.02163 17352 ft 140 kts 236°
2026-05-06 17:36 37.97752 -83.02974 17493 ft 139 kts 235°
2026-05-06 17:36 37.97024 -83.03774 17628 ft 138 kts 235°
2026-05-06 17:37 37.96304 -83.04565 17759 ft 137 kts 236°
2026-05-06 17:37 37.95590 -83.05351 17886 ft 136 kts 236°
2026-05-06 17:37 37.94881 -83.06132 18019 ft 135 kts 237°
2026-05-06 17:37 37.94172 -83.06911 18157 ft 134 kts 237°
2026-05-06 17:38 37.93473 -83.07678 18290 ft 133 kts 236°
2026-05-06 17:38 37.92773 -83.08449 18439 ft 132 kts 237°
2026-05-06 17:38 37.92084 -83.09206 18578 ft 132 kts 237°
2026-05-06 17:38 37.91388 -83.09971 18721 ft 131 kts 236°